| time (UTC) | temp C | wind direction | speed KPH | gust KPH | rain 1hr cm | rain 24hr cm | rain mn cm | humidity % | barometer mb |
| 20260507134503 | 6 | 82 | 0.0 | 0.0 | 0.00 | 0.00 | 0.00 | 46 | 1018.3 |
| 20260507133045 | 6 | 82 | 1.6 | 6.4 | 0.00 | 0.00 | 0.00 | 49 | 1018.1 |
| 20260507131606 | 5 | 82 | 3.2 | 6.4 | 0.00 | 0.00 | 0.00 | 48 | 1018.1 |
| 20260507130019 | 3 | 82 | 1.6 | 4.8 | 0.00 | 0.00 | 0.00 | 53 | 1018.1 |
| 20260507124532 | 2 | 82 | 0.0 | 3.2 | 0.00 | 0.05 | 0.00 | 54 | 1017.9 |
| 20260507123055 | 2 | 82 | 0.0 | 4.8 | 0.00 | 0.05 | 0.00 | 54 | 1017.8 |
| 20260507121549 | 2 | 82 | 3.2 | 4.8 | 0.00 | 0.05 | 0.00 | 57 | 1017.4 |
| 20260507120049 | 3 | 82 | 1.6 | 6.4 | 0.00 | 0.05 | 0.00 | 53 | 1017.3 |
| 20260507114545 | 3 | 82 | 0.0 | 3.2 | 0.00 | 0.05 | 0.00 | 52 | 1017.0 |
| 20260507113044 | 3 | 82 | 0.0 | 4.8 | 0.00 | 0.05 | 0.00 | 55 | 1017.1 |
| 20260507111547 | 3 | 82 | 0.0 | 3.2 | 0.00 | 0.05 | 0.00 | 57 | 1017.1 |
| 20260507110041 | 3 | 82 | 0.0 | 1.6 | 0.00 | 0.05 | 0.00 | 58 | 1017.3 |
| 20260507104538 | 4 | 82 | 0.0 | 0.0 | 0.00 | 0.05 | 0.00 | 55 | 1017.1 |
| 20260507103040 | 4 | 82 | 0.0 | 3.2 | 0.00 | 0.05 | 0.00 | 49 | 1017.1 |
| 20260507101543 | 5 | 82 | 0.0 | 0.0 | 0.00 | 0.05 | 0.00 | 52 | 1016.9 |
| 20260507100036 | 5 | 82 | 0.0 | 3.2 | 0.00 | 0.05 | 0.00 | 49 | 1016.8 |
| 20260507094539 | 5 | 82 | 0.0 | 0.0 | 0.00 | 0.05 | 0.00 | 49 | 1016.7 |
| 20260507093034 | 5 | 82 | 0.0 | 1.6 | 0.00 | 0.05 | 0.00 | 51 | 1016.8 |
| 20260507091530 | 5 | 82 | 1.6 | 4.8 | 0.00 | 0.05 | 0.00 | 50 | 1016.8 |
| 20260507090032 | 5 | 82 | 0.0 | 1.6 | 0.00 | 0.05 | 0.00 | 53 | 1016.6 |
| 20260507084525 | 5 | 82 | 0.0 | 1.6 | 0.00 | 0.05 | 0.00 | 43 | 1016.7 |
| 20260507083019 | 6 | 82 | 3.2 | 4.8 | 0.00 | 0.05 | 0.00 | 36 | 1016.6 |
| 20260507081522 | 6 | 82 | 0.0 | 3.2 | 0.00 | 0.05 | 0.00 | 35 | 1016.5 |
| 20260507080012 | 7 | 82 | 0.0 | 1.6 | 0.00 | 0.05 | 0.00 | 36 | 1016.4 |
| 20260507074509 | 7 | 82 | 0.0 | 1.6 | 0.00 | 0.05 | 0.00 | 34 | 1016.4 |
| 20260507073009 | 8 | 82 | 0.0 | 3.2 | 0.00 | 0.05 | 0.00 | 37 | 1016.5 |
| 20260507071503 | 8 | 82 | 1.6 | 6.4 | 0.00 | 0.05 | 0.00 | 37 | 1016.6 |
| 20260507070001 | 8 | 82 | 0.0 | 0.0 | 0.00 | 0.05 | 0.00 | 31 | 1016.4 |
| 20260507064558 | 9 | 82 | 0.0 | 8.0 | 0.00 | 0.05 | 0.00 | 31 | 1016.4 |
| 20260507063055 | 10 | 78 | 0.0 | 0.0 | 0.00 | 0.05 | 0.00 | 32 | 1016.3 |
| 20260507061553 | 10 | 78 | 3.2 | 12.9 | 0.00 | 0.05 | 0.00 | 29 | 1016.4 |
| 20260507060058 | 11 | 163 | 1.6 | 6.4 | 0.00 | 0.05 | 0.00 | 28 | 1016.2 |
| 20260507054550 | 11 | 165 | 0.0 | 3.2 | 0.00 | 0.05 | 0.05 | 28 | 1016.0 |
| 20260507053053 | 11 | 165 | 3.2 | 9.7 | 0.00 | 0.05 | 0.05 | 27 | 1015.8 |
| 20260507051545 | 11 | 169 | 1.6 | 4.8 | 0.00 | 0.05 | 0.05 | 28 | 1015.7 |
| 20260507050043 | 12 | 157 | 3.2 | 9.7 | 0.00 | 0.05 | 0.05 | 30 | 1015.7 |
| 20260507044554 | 12 | 148 | 1.6 | 4.8 | 0.00 | 0.05 | 0.05 | 28 | 1015.6 |
| 20260507043036 | 12 | 130 | 8.0 | 14.5 | 0.00 | 0.05 | 0.05 | 24 | 1015.5 |
| 20260507041533 | 13 | 142 | 4.8 | 12.9 | 0.00 | 0.05 | 0.05 | 24 | 1015.3 |
| 20260507040035 | 13 | 155 | 4.8 | 12.9 | 0.00 | 0.05 | 0.05 | 24 | 1015.1 |
| 20260507034535 | 14 | 145 | 9.7 | 17.7 | 0.00 | 0.05 | 0.05 | 23 | 1014.9 |
| 20260507033028 | 14 | 132 | 8.0 | 12.9 | 0.00 | 0.05 | 0.05 | 22 | 1014.6 |
| 20260507031525 | 15 | 153 | 6.4 | 14.5 | 0.00 | 0.05 | 0.05 | 22 | 1014.4 |
| 20260507030023 | 15 | 162 | 6.4 | 17.7 | 0.00 | 0.05 | 0.05 | 22 | 1013.8 |
| 20260507024521 | 15 | 141 | 11.3 | 17.7 | 0.00 | 0.05 | 0.05 | 21 | 1013.5 |
| 20260507023021 | 16 | 152 | 12.9 | 19.3 | 0.00 | 0.05 | 0.05 | 20 | 1013.3 |
| 20260507021520 | 16 | 138 | 9.7 | 22.5 | 0.00 | 0.05 | 0.05 | 21 | 1013.1 |
| 20260507020016 | 17 | 153 | 12.9 | 20.9 | 0.00 | 0.05 | 0.05 | 20 | 1012.8 |
| 20260507014515 | 17 | 153 | 12.9 | 24.1 | 0.00 | 0.05 | 0.05 | 19 | 1012.7 |
| 20260507013015 | 18 | 129 | 16.1 | 22.5 | 0.00 | 0.05 | 0.05 | 19 | 1012.5 |
| 20260507011512 | 18 | 169 | 8.0 | 17.7 | 0.00 | 0.05 | 0.05 | 20 | 1012.2 |
| 20260507010012 | 18 | 94 | 3.2 | 9.7 | 0.00 | 0.05 | 0.05 | 21 | 1012.1 |
| 20260507004512 | 18 | 55 | 4.8 | 14.5 | 0.00 | 0.05 | 0.05 | 21 | 1012.1 |
| 20260507003019 | 19 | 227 | 1.6 | 8.0 | 0.00 | 0.05 | 0.05 | 21 | 1012.1 |
| 20260507001518 | 18 | 256 | 6.4 | 11.3 | 0.00 | 0.05 | 0.05 | 21 | 1012.0 |
| 20260507000012 | 18 | 27 | 6.4 | 16.1 | 0.00 | 0.05 | 0.05 | 22 | 1011.9 |
| 20260506234509 | 18 | 327 | 0.0 | 14.5 | 0.00 | 0.05 | 0.05 | 22 | 1012.0 |
| 20260506233005 | 18 | 104 | 4.8 | 11.3 | 0.00 | 0.05 | 0.05 | 22 | 1012.0 |
| 20260506231603 | 17 | 57 | 3.2 | 17.7 | 0.00 | 0.05 | 0.05 | 23 | 1012.0 |
| 20260506230032 | 18 | 58 | 11.3 | 17.7 | 0.00 | 0.05 | 0.05 | 23 | 1011.9 |
| 20260506224618 | 17 | 219 | 3.2 | 12.9 | 0.00 | 0.05 | 0.05 | 24 | 1012.2 |
| 20260506223015 | 17 | 263 | 3.2 | 25.7 | 0.00 | 0.05 | 0.05 | 25 | 1012.1 |
| 20260506221510 | 17 | 21 | 6.4 | 20.9 | 0.00 | 0.05 | 0.05 | 25 | 1012.4 |
| 20260506220024 | 17 | 76 | 11.3 | 19.3 | 0.00 | 0.05 | 0.05 | 25 | 1012.5 |
| 20260506214502 | 16 | 49 | 16.1 | 30.6 | 0.00 | 0.05 | 0.05 | 25 | 1012.7 |
| 20260506213005 | 16 | 55 | 9.7 | 27.4 | 0.00 | 0.05 | 0.05 | 25 | 1012.7 |
| 20260506211501 | 16 | 38 | 16.1 | 24.1 | 0.00 | 0.05 | 0.05 | 26 | 1012.8 |
| 20260506210019 | 16 | 63 | 14.5 | 33.8 | 0.00 | 0.05 | 0.05 | 26 | 1012.6 |
| 20260506204521 | 15 | 71 | 11.3 | 27.4 | 0.00 | 0.05 | 0.05 | 26 | 1012.8 |
| 20260506203027 | 15 | 45 | 14.5 | 25.7 | 0.00 | 0.05 | 0.05 | 27 | 1012.8 |
| 20260506201523 | 15 | 5 | 16.1 | 25.7 | 0.00 | 0.05 | 0.05 | 26 | 1012.7 |
| 20260506200021 | 15 | 23 | 24.1 | 35.4 | 0.00 | 0.05 | 0.05 | 26 | 1012.8 |
| 20260506194501 | 15 | 42 | 16.1 | 30.6 | 0.00 | 0.05 | 0.05 | 28 | 1012.8 |
| 20260506193109 | 14 | 48 | 19.3 | 33.8 | 0.00 | 0.05 | 0.05 | 29 | 1012.7 |
| 20260506191511 | 14 | 47 | 20.9 | 29.0 | 0.00 | 0.05 | 0.05 | 28 | 1012.6 |
| 20260506190020 | 14 | 27 | 20.9 | 32.2 | 0.00 | 0.05 | 0.05 | 30 | 1012.8 |
| 20260506184527 | 14 | 40 | 17.7 | 38.6 | 0.00 | 0.05 | 0.05 | 31 | 1012.7 |
| 20260506183110 | 13 | 72 | 22.5 | 33.8 | 0.00 | 0.05 | 0.05 | 31 | 1012.5 |
| 20260506181600 | 13 | 58 | 24.1 | 33.8 | 0.00 | 0.05 | 0.05 | 31 | 1012.5 |
| 20260506180055 | 13 | 57 | 16.1 | 33.8 | 0.00 | 0.05 | 0.05 | 32 | 1012.3 |
| 20260506174552 | 13 | 44 | 22.5 | 33.8 | 0.00 | 0.05 | 0.05 | 33 | 1012.5 |
| 20260506173050 | 13 | 30 | 14.5 | 33.8 | 0.00 | 0.05 | 0.05 | 34 | 1012.1 |
| 20260506171556 | 12 | 67 | 17.7 | 38.6 | 0.00 | 0.05 | 0.05 | 36 | 1011.8 |
| 20260506170047 | 13 | 26 | 22.5 | 30.6 | 0.00 | 0.05 | 0.05 | 38 | 1011.3 |
| 20260506164544 | 12 | 45 | 22.5 | 30.6 | 0.00 | 0.05 | 0.05 | 40 | 1011.1 |
| 20260506163044 | 12 | 5 | 17.7 | 29.0 | 0.00 | 0.05 | 0.05 | 43 | 1010.8 |
| 20260506161539 | 12 | 25 | 17.7 | 27.4 | 0.00 | 0.05 | 0.05 | 45 | 1010.6 |
| 20260506160037 | 11 | 24 | 16.1 | 22.5 | 0.00 | 0.05 | 0.05 | 48 | 1010.5 |
| 20260506154536 | 11 | 39 | 14.5 | 22.5 | 0.00 | 0.05 | 0.05 | 51 | 1010.3 |
| 20260506153014 | 10 | 19 | 14.5 | 24.1 | 0.00 | 0.05 | 0.05 | 52 | 1010.1 |
| 20260506151521 | 10 | 17 | 16.1 | 20.9 | 0.00 | 0.05 | 0.05 | 55 | 1009.7 |
| 20260506150010 | 9 | 21 | 14.5 | 24.1 | 0.00 | 0.05 | 0.05 | 55 | 1009.3 |
| 20260506144508 | 9 | 17 | 12.9 | 20.9 | 0.00 | 0.05 | 0.05 | 58 | 1009.3 |
| 20260506143007 | 8 | 38 | 19.3 | 27.4 | 0.00 | 0.05 | 0.05 | 58 | 1009.1 |
| 20260506141505 | 8 | 24 | 19.3 | 29.0 | 0.00 | 0.05 | 0.05 | 60 | 1009.0 |
| 20260506140003 | 8 | 36 | 17.7 | 25.7 | 0.00 | 0.05 | 0.05 | 66 | 1008.6 |